Showing default

KUIPER-00269, 68587

Orbit data source: Space-Track

KUIPER-00269, 68587 is a payload satellite owned by Kuiper Systems (US) in LEO that was launched on Sat, 04 Apr 2026 UTC via an ATLAS V 551 launch vehicle from the Air Force Eastern Test Range (AFETR). Payload-class satellites include a variety of spacecraft equipped with specific instruments for various scientific and technological missions. These include communications satellites like Starlink; space stations such as the ISS; scientific satellites like the Hubble; Earth observation satellites from companies like Planet Labs, Umbra, and HawkEye 360; GPS; miniature CubeSats for education and research; and military/defense satellites.

Loading next visibility...
Identifier
68587, 2026-072Q
Orbit
LEO
Country
Flag of USUS
Related business
Manufacturer
Kuiper Systems
Mission
Operational spacecraft
Bus & Motor
KUIPER, Unknown motor
Mass
~490 kg wet, ~490 kg dry
Launch date (UTC)
2026-04-04 (2 months ago)
Launch vehicle
ATLAS V 551
Launch site
Air Force Eastern Test Range (AFETR)
Object type
Payload
Rocket body
Debris
Shape & HBR
Unknown shape, 3.4 m
Radar Cross Section
Large (>1 m²)

Expand to show TLE details & history
Last TLE update: 2 days ago

TLE from 2 days ago
0 KUIPER-00269
1 68587U 26072Q   26155.31484091 -.00310713  00000-0 -86203-2 0  9998
2 68587  51.8730 238.9125 0003505 317.3566  42.7148 15.37598652  9404
Epoch: 2026-06-04T07:33Z
TLE epoch observation values (Epoch: 2026-06-04T07:33:22.254Z)
Latitude
-0.00006°
Longitude
-127.19114°
Altitude
452.217 km
Speed
7.643 km/s
True Right ascension
15h 55m 38s
True Declination
0° 00' 00"
Sunlit
Object was in full shadow at epoch
Visualization orbit readout
Latitude
Unknown
Longitude
Unknown
Altitude
Unknown
Speed
Unknown
Apparent Right ascension
Unknown
Apparent Declination
Unknown
Sunlit
N/A
Visualization observer readout
Local Sidereal Time
02:40:29
Azimuth
Unknown
Elevation
Unknown
Doppler factor
Unknown
Orbital elements
Apogee altitude
456.074 km
Perigee altitude
451.285 km
Semi-major axis
6,831.817 km
Eccentricity
0.00035
Inclination
51.873°
RAAN
238.9125°
Arg. of periapsis
317.3566°
True anomaly
42.74205°
Mean anomaly
42.7148°
Eccentric anomaly
42.72843°
Mean motion
3.84361 °/min
Orbital period
93.66 mins
BSTAR
-0.0086203
Loading maneuver chart data...
Computing Atmospheric mass density...
Loading historical data...
Loading historical data...
Loading historical data...
Loading historical data...
Loading historical data...
Loading historical data...
Loading historical data...

Documentation

Showing up to 5 results
|